N254SB OLBA-LTFJ

Flight info

Callsign N254SB
Flight time 1h 47m
Altitude 43000
Route KAD2F KAD UB15 BALMA L620 VESAR UT38 VAPEK UL610 ETAMP ETAMP2H
Aircraft C25C/M-SDE2E3FGHRWXY/LB1

Departure

Time 2026-05-07 12:05
Airport Beirut Rafic Hariri International Airport (OLBA)

Arrival

Time 2026-05-07 13:52
Airport Istanbul Sabiha Gökçen International Airport (LTFJ)
Time Latitude Longitude Altitude Speed Heading
2026-05-07 11:49 33.82264 35.49369 35 ft 0 kts 16°
2026-05-07 11:54 33.82254 35.49366 35 ft 3 kts 16°
2026-05-07 11:55 33.82237 35.49360 35 ft 3 kts 16°
2026-05-07 11:55 33.82219 35.49354 32 ft 3 kts 16°
2026-05-07 11:55 33.82201 35.49348 34 ft 3 kts 16°
2026-05-07 11:55 33.82195 35.49346 34 ft 0 kts 16°
2026-05-07 11:58 33.82204 35.49364 32 ft 5 kts 84°
2026-05-07 11:59 33.82214 35.49404 35 ft 5 kts 58°
2026-05-07 11:59 33.82232 35.49438 34 ft 5 kts 57°
2026-05-07 11:59 33.82249 35.49471 35 ft 5 kts 57°
2026-05-07 11:59 33.82250 35.49507 36 ft 5 kts 111°
2026-05-07 12:00 33.82228 35.49549 36 ft 7 kts 124°
2026-05-07 12:00 33.82206 35.49604 37 ft 7 kts 92°
2026-05-07 12:00 33.82224 35.49642 37 ft 5 kts 34°
2026-05-07 12:00 33.82271 35.49682 38 ft 11 kts 38°
2026-05-07 12:01 33.82349 35.49751 39 ft 17 kts 35°
2026-05-07 12:01 33.82459 35.49840 41 ft 21 kts 33°
2026-05-07 12:01 33.82564 35.49932 42 ft 16 kts 38°
2026-05-07 12:01 33.82652 35.50004 44 ft 15 kts 37°
2026-05-07 12:02 33.82729 35.50073 46 ft 13 kts 36°
2026-05-07 12:02 33.82759 35.50159 53 ft 12 kts 113°
2026-05-07 12:02 33.82729 35.50214 64 ft 0 kts 124°
2026-05-07 12:04 33.82726 35.50220 64 ft 4 kts 124°
2026-05-07 12:04 33.82690 35.50265 65 ft 10 kts 145°
2026-05-07 12:04 33.82612 35.50252 65 ft 17 kts 210°
2026-05-07 12:04 33.82339 35.50051 43 ft 94 kts 216°
2026-05-07 12:05 33.81526 35.49324 90 ft 185 kts 220°
2026-05-07 12:05 33.80434 35.48453 1162 ft 197 kts 217°
2026-05-07 12:05 33.79415 35.47371 2564 ft 194 kts 234°
2026-05-07 12:05 33.78781 35.45904 3655 ft 202 kts 251°
2026-05-07 12:06 33.78259 35.44363 4991 ft 198 kts 257°
2026-05-07 12:06 33.78472 35.42771 6166 ft 202 kts 294°
2026-05-07 12:06 33.79086 35.41199 7216 ft 208 kts 294°
2026-05-07 12:06 33.79753 35.39661 8388 ft 208 kts 296°
2026-05-07 12:07 33.80440 35.38142 9538 ft 210 kts 296°
2026-05-07 12:07 33.81170 35.36590 10651 ft 210 kts 297°
2026-05-07 12:07 33.82215 35.35397 11702 ft 217 kts 328°
2026-05-07 12:07 33.83546 35.34525 12728 ft 219 kts 327°
2026-05-07 12:08 33.84903 35.33677 13757 ft 223 kts 329°
2026-05-07 12:08 33.86363 35.32778 14244 ft 249 kts 329°
2026-05-07 12:08 33.87975 35.31782 14667 ft 273 kts 329°
2026-05-07 12:08 33.89737 35.30686 15102 ft 294 kts 329°
2026-05-07 12:09 33.91549 35.29545 15534 ft 312 kts 329°
2026-05-07 12:09 33.93485 35.28325 15989 ft 328 kts 329°
2026-05-07 12:09 33.95540 35.27019 16438 ft 341 kts 329°
2026-05-07 12:09 33.97649 35.25681 16888 ft 352 kts 329°
2026-05-07 12:10 33.99838 35.24283 17349 ft 361 kts 329°
2026-05-07 12:10 34.02083 35.22848 17812 ft 369 kts 329°
2026-05-07 12:10 34.04371 35.21368 18300 ft 376 kts 329°
2026-05-07 12:10 34.06688 35.19864 18715 ft 381 kts 329°
2026-05-07 12:11 34.08994 35.18361 19128 ft 370 kts 329°
2026-05-07 12:11 34.11184 35.16950 19591 ft 352 kts 329°
2026-05-07 12:11 34.13281 35.15610 20055 ft 338 kts 329°
2026-05-07 12:11 34.15310 35.14330 20525 ft 325 kts 329°
2026-05-07 12:12 34.17280 35.13101 21001 ft 315 kts 329°
2026-05-07 12:12 34.19204 35.11909 21436 ft 307 kts 329°
2026-05-07 12:12 34.21098 35.10752 21879 ft 300 kts 329°
2026-05-07 12:12 34.22939 35.09631 22325 ft 294 kts 329°
2026-05-07 12:13 34.24757 35.08542 22785 ft 288 kts 329°
2026-05-07 12:13 34.26536 35.07481 23247 ft 283 kts 329°
2026-05-07 12:13 34.28271 35.06460 23704 ft 278 kts 329°
2026-05-07 12:13 34.29998 35.05455 24100 ft 274 kts 329°
2026-05-07 12:14 34.31704 35.04471 24516 ft 270 kts 329°
2026-05-07 12:14 34.33388 35.03515 24924 ft 266 kts 329°
2026-05-07 12:14 34.35053 35.02579 25336 ft 262 kts 329°
2026-05-07 12:14 34.36697 35.01662 25756 ft 258 kts 329°
2026-05-07 12:15 34.38318 35.00771 26176 ft 254 kts 329°
2026-05-07 12:15 34.39914 34.99903 26605 ft 250 kts 329°
2026-05-07 12:15 34.41492 34.99054 27047 ft 245 kts 329°
2026-05-07 12:15 34.43017 34.98240 27482 ft 240 kts 329°
2026-05-07 12:16 34.44531 34.97436 27931 ft 236 kts 329°
2026-05-07 12:16 34.46015 34.96655 28382 ft 231 kts 329°
2026-05-07 12:16 34.47484 34.95898 28845 ft 226 kts 329°
2026-05-07 12:16 34.48908 34.95173 29305 ft 221 kts 329°
2026-05-07 12:17 34.50310 34.94471 29773 ft 215 kts 329°
2026-05-07 12:17 34.51683 34.93798 30239 ft 210 kts 329°
2026-05-07 12:17 34.53014 34.93154 30641 ft 204 kts 329°
2026-05-07 12:17 34.54319 34.92534 31049 ft 197 kts 329°
2026-05-07 12:18 34.55556 34.91959 31450 ft 190 kts 329°
2026-05-07 12:18 34.56768 34.91401 31879 ft 183 kts 329°
2026-05-07 12:18 34.57939 34.90880 32291 ft 174 kts 329°
2026-05-07 12:18 34.59051 34.90400 32702 ft 166 kts 329°
2026-05-07 12:19 34.60109 34.89954 33109 ft 156 kts 329°
2026-05-07 12:19 34.61109 34.89559 33483 ft 146 kts 329°
2026-05-07 12:19 34.62065 34.89170 38748 ft 146 kts 322°
2026-05-07 12:19 34.63085 34.88538 38085 ft 190 kts 330°
2026-05-07 12:20 34.64325 34.87900 37991 ft 200 kts 328°
2026-05-07 12:20 34.65646 34.87206 37922 ft 212 kts 329°
2026-05-07 12:20 34.67061 34.86447 37878 ft 231 kts 329°
2026-05-07 12:20 34.68584 34.85614 37857 ft 249 kts 329°
2026-05-07 12:21 34.70203 34.84713 37820 ft 267 kts 329°
2026-05-07 12:21 34.71922 34.83737 37795 ft 284 kts 329°
2026-05-07 12:21 34.73750 34.82687 37762 ft 300 kts 329°
2026-05-07 12:21 34.75682 34.81566 37722 ft 315 kts 329°
2026-05-07 12:22 34.77680 34.80391 37674 ft 329 kts 329°
2026-05-07 12:22 34.79811 34.79128 37615 ft 343 kts 329°
2026-05-07 12:22 34.81947 34.77855 37569 ft 356 kts 329°
2026-05-07 12:22 34.84188 34.76509 37496 ft 367 kts 329°
2026-05-07 12:23 34.86481 34.75129 37415 ft 377 kts 329°
2026-05-07 12:23 34.91293 34.72209 37237 ft 394 kts 329°
2026-05-07 12:24 34.96239 34.69163 37433 ft 398 kts 329°
2026-05-07 12:24 34.98713 34.67637 37612 ft 399 kts 329°
2026-05-07 12:24 35.01185 34.66104 37787 ft 399 kts 329°
2026-05-07 12:24 35.03612 34.64601 37955 ft 399 kts 329°
2026-05-07 12:25 35.06087 34.63064 38118 ft 399 kts 329°
2026-05-07 12:25 35.08580 34.61512 38322 ft 400 kts 329°
2026-05-07 12:25 35.11053 34.59973 38492 ft 400 kts 329°
2026-05-07 12:25 35.13529 34.58425 38669 ft 400 kts 329°
2026-05-07 12:26 35.16006 34.56875 38823 ft 401 kts 329°
2026-05-07 12:26 35.18460 34.55339 38952 ft 401 kts 329°
2026-05-07 12:26 35.20944 34.53781 39083 ft 401 kts 329°
2026-05-07 12:26 35.23437 34.52222 39219 ft 402 kts 329°
2026-05-07 12:27 35.25894 34.50683 39346 ft 402 kts 329°
2026-05-07 12:27 35.28379 34.49129 39480 ft 403 kts 329°
2026-05-07 12:27 35.30862 34.47579 39624 ft 403 kts 329°
2026-05-07 12:27 35.33378 34.46003 39757 ft 403 kts 329°
2026-05-07 12:28 35.35877 34.44436 39897 ft 404 kts 329°
2026-05-07 12:28 35.38379 34.42863 40035 ft 404 kts 329°
2026-05-07 12:28 35.40872 34.41298 40173 ft 404 kts 329°
2026-05-07 12:28 35.43329 34.39757 40315 ft 405 kts 329°
2026-05-07 12:29 35.45843 34.38179 40456 ft 405 kts 329°
2026-05-07 12:29 35.50925 34.34991 40467 ft 412 kts 329°
2026-05-07 12:30 35.55940 34.31839 40469 ft 418 kts 329°
2026-05-07 12:30 35.61132 34.28566 40467 ft 418 kts 329°
2026-05-07 12:31 35.66190 34.25366 40469 ft 411 kts 329°
2026-05-07 12:31 35.71072 34.21902 40458 ft 403 kts 322°
2026-05-07 12:32 35.75207 34.17432 40454 ft 396 kts 311°
2026-05-07 12:32 35.78777 34.12450 40453 ft 392 kts 309°
2026-05-07 12:33 35.83920 34.04924 40457 ft 388 kts 308°
2026-05-07 12:33 35.87456 33.99813 40457 ft 386 kts 310°
2026-05-07 12:34 35.91007 33.94912 40453 ft 384 kts 310°
2026-05-07 12:34 35.94544 33.90053 40473 ft 383 kts 310°
2026-05-07 12:35 35.98083 33.85181 40472 ft 382 kts 310°
2026-05-07 12:35 36.01621 33.80307 40472 ft 381 kts 310°
2026-05-07 12:36 36.05156 33.75432 40469 ft 380 kts 310°
2026-05-07 12:36 36.08681 33.70572 40465 ft 380 kts 310°
2026-05-07 12:37 36.12171 33.65743 40474 ft 379 kts 310°
2026-05-07 12:37 36.15661 33.60856 40473 ft 378 kts 310°
2026-05-07 12:38 36.19134 33.55982 40475 ft 377 kts 310°
2026-05-07 12:38 36.22595 33.51113 40477 ft 377 kts 310°
2026-05-07 12:39 36.26031 33.46275 40474 ft 377 kts 310°
2026-05-07 12:39 36.29428 33.41491 40475 ft 376 kts 310°
2026-05-07 12:40 36.32882 33.36624 40469 ft 376 kts 310°
2026-05-07 12:40 36.36337 33.31750 40470 ft 375 kts 310°
2026-05-07 12:41 36.39787 33.26874 40469 ft 375 kts 310°
2026-05-07 12:41 36.43191 33.22059 40472 ft 375 kts 310°
2026-05-07 12:42 36.46624 33.17204 40471 ft 374 kts 310°
2026-05-07 12:42 36.50074 33.12315 40464 ft 374 kts 310°
2026-05-07 12:43 36.53496 33.07449 40464 ft 374 kts 310°
2026-05-07 12:43 36.56895 33.02614 40467 ft 374 kts 310°
2026-05-07 12:44 36.60325 32.97730 40468 ft 373 kts 310°
2026-05-07 12:44 36.63722 32.92885 40480 ft 372 kts 310°
2026-05-07 12:45 36.67057 32.88136 40479 ft 373 kts 310°
2026-05-07 12:45 36.70467 32.83256 40490 ft 373 kts 310°
2026-05-07 12:46 36.73859 32.78384 40491 ft 374 kts 310°
2026-05-07 12:46 36.77251 32.73511 40490 ft 373 kts 310°
2026-05-07 12:47 36.80656 32.68612 40498 ft 373 kts 310°
2026-05-07 12:47 36.84064 32.63704 40498 ft 373 kts 310°
2026-05-07 12:48 36.87431 32.58850 40497 ft 373 kts 310°
2026-05-07 12:48 36.90769 32.53959 40497 ft 373 kts 309°
2026-05-07 12:49 36.93960 32.48882 40504 ft 373 kts 308°
2026-05-07 12:49 36.97061 32.43832 40506 ft 373 kts 308°
2026-05-07 12:50 37.00257 32.38612 40506 ft 373 kts 308°
2026-05-07 12:50 37.03398 32.33475 40514 ft 374 kts 308°
2026-05-07 12:51 37.06544 32.28299 40508 ft 374 kts 308°
2026-05-07 12:51 37.09689 32.23115 40512 ft 373 kts 308°
2026-05-07 12:52 37.12828 32.17931 40514 ft 374 kts 307°
2026-05-07 12:52 37.15948 32.12780 40514 ft 374 kts 307°
2026-05-07 12:53 37.19072 32.07619 40514 ft 374 kts 308°
2026-05-07 12:53 37.22185 32.02457 40512 ft 373 kts 307°
2026-05-07 12:54 37.25314 31.97254 40512 ft 373 kts 307°
2026-05-07 12:54 37.28424 31.92082 40510 ft 374 kts 308°
2026-05-07 12:55 37.31549 31.86889 40510 ft 373 kts 307°
2026-05-07 12:55 37.34602 31.81816 40515 ft 373 kts 307°
2026-05-07 12:56 37.37613 31.76812 40507 ft 374 kts 308°
2026-05-07 12:56 37.40770 31.71550 40513 ft 374 kts 308°
2026-05-07 12:57 37.43905 31.66318 40515 ft 374 kts 308°
2026-05-07 12:57 37.47009 31.61137 40522 ft 374 kts 308°
2026-05-07 12:58 37.50137 31.55903 40514 ft 374 kts 308°
2026-05-07 12:58 37.53264 31.50666 40510 ft 374 kts 308°
2026-05-07 12:59 37.56399 31.45412 40517 ft 374 kts 308°
2026-05-07 12:59 37.59497 31.40214 40517 ft 374 kts 307°
2026-05-07 13:00 37.62616 31.34977 40515 ft 374 kts 307°
2026-05-07 13:00 37.65738 31.29743 40513 ft 373 kts 307°
2026-05-07 13:01 37.68864 31.24506 40515 ft 374 kts 308°
2026-05-07 13:01 37.71989 31.19271 40515 ft 374 kts 307°
2026-05-07 13:02 37.75103 31.14060 40512 ft 374 kts 308°
2026-05-07 13:02 37.78238 31.08808 40513 ft 374 kts 308°
2026-05-07 13:03 37.81372 31.03557 40511 ft 374 kts 308°
2026-05-07 13:03 37.84479 30.98346 40511 ft 373 kts 307°
2026-05-07 13:04 37.87602 30.93103 40522 ft 373 kts 308°
2026-05-07 13:04 37.90726 30.87851 40520 ft 373 kts 308°
2026-05-07 13:05 37.93851 30.82592 40521 ft 373 kts 308°
2026-05-07 13:05 37.96951 30.77371 40522 ft 372 kts 307°
2026-05-07 13:06 38.00060 30.72131 40502 ft 373 kts 308°
2026-05-07 13:06 38.03169 30.66871 40503 ft 372 kts 308°
2026-05-07 13:07 38.06522 30.61868 40504 ft 372 kts 317°
2026-05-07 13:07 38.10626 30.57943 40504 ft 374 kts 328°
2026-05-07 13:08 38.15334 30.55117 40502 ft 375 kts 335°
2026-05-07 13:08 38.20147 30.52697 40514 ft 374 kts 336°
2026-05-07 13:09 38.25022 30.50315 40512 ft 375 kts 336°
2026-05-07 13:09 38.29894 30.47941 40512 ft 375 kts 336°
2026-05-07 13:10 38.34722 30.45588 40511 ft 374 kts 336°
2026-05-07 13:10 38.39601 30.43211 40513 ft 375 kts 336°
2026-05-07 13:11 38.44484 30.40834 40508 ft 376 kts 336°
2026-05-07 13:11 38.49363 30.38450 40502 ft 375 kts 336°
2026-05-07 13:12 38.54232 30.36076 40500 ft 374 kts 336°
2026-05-07 13:12 38.59027 30.33738 40500 ft 374 kts 336°
2026-05-07 13:13 38.63863 30.31381 40499 ft 374 kts 336°
2026-05-07 13:13 38.68710 30.29017 40500 ft 374 kts 336°
2026-05-07 13:14 38.73521 30.26668 40493 ft 374 kts 336°
2026-05-07 13:14 38.78397 30.24289 40492 ft 373 kts 336°
2026-05-07 13:15 38.83228 30.21932 40493 ft 373 kts 336°
2026-05-07 13:15 38.88070 30.19568 40493 ft 373 kts 336°
2026-05-07 13:16 38.92925 30.17190 40496 ft 373 kts 336°
2026-05-07 13:16 38.97771 30.14811 40493 ft 373 kts 336°
2026-05-07 13:17 39.02567 30.12454 40491 ft 372 kts 336°
2026-05-07 13:17 39.07417 30.10072 40485 ft 372 kts 336°
2026-05-07 13:18 39.12203 30.07745 40480 ft 372 kts 337°
2026-05-07 13:18 39.17039 30.05406 40490 ft 371 kts 336°
2026-05-07 13:19 39.21878 30.03072 40484 ft 371 kts 336°
2026-05-07 13:19 39.26701 30.00747 40483 ft 371 kts 336°
2026-05-07 13:20 39.31553 29.98408 40485 ft 371 kts 337°
2026-05-07 13:20 39.36361 29.96091 40478 ft 371 kts 337°
2026-05-07 13:21 39.41188 29.93759 40476 ft 371 kts 336°
2026-05-07 13:21 39.46028 29.91421 40471 ft 371 kts 336°
2026-05-07 13:22 39.50877 29.89077 40474 ft 371 kts 337°
2026-05-07 13:22 39.55698 29.86746 40470 ft 371 kts 337°
2026-05-07 13:23 39.60543 29.84398 40474 ft 371 kts 337°
2026-05-07 13:23 39.65356 29.82053 40466 ft 371 kts 336°
2026-05-07 13:24 39.70204 29.79719 40470 ft 371 kts 337°
2026-05-07 13:24 39.75040 29.77406 40466 ft 371 kts 337°
2026-05-07 13:25 39.79899 29.75081 40461 ft 371 kts 337°
2026-05-07 13:25 39.84701 29.72779 40467 ft 371 kts 337°
2026-05-07 13:26 39.89528 29.70467 40466 ft 371 kts 337°
2026-05-07 13:26 39.94391 29.68137 40459 ft 371 kts 337°
2026-05-07 13:27 39.99241 29.65811 40457 ft 372 kts 337°
2026-05-07 13:27 40.04072 29.63490 40462 ft 372 kts 337°
2026-05-07 13:28 40.08917 29.61157 40446 ft 372 kts 337°
2026-05-07 13:28 40.13689 29.58860 40442 ft 352 kts 337°
2026-05-07 13:29 40.15947 29.57780 40219 ft 342 kts 337°
2026-05-07 13:29 40.18171 29.56721 39933 ft 334 kts 337°
2026-05-07 13:29 40.20304 29.55710 39674 ft 327 kts 337°
2026-05-07 13:29 40.22422 29.54707 39412 ft 321 kts 337°
2026-05-07 13:30 40.23828 29.54045 39234 ft 316 kts 337°
2026-05-07 13:30 40.26538 29.52787 38890 ft 309 kts 337°
2026-05-07 13:30 40.28533 29.51881 38595 ft 304 kts 337°
2026-05-07 13:30 40.30544 29.50977 38197 ft 302 kts 337°
2026-05-07 13:31 40.31848 29.50387 37939 ft 300 kts 337°
2026-05-07 13:31 40.34464 29.49204 37289 ft 301 kts 337°
2026-05-07 13:31 40.35786 29.48605 36963 ft 301 kts 337°
2026-05-07 13:31 40.37772 29.47694 36498 ft 301 kts 337°
2026-05-07 13:32 40.40443 29.46649 35889 ft 304 kts 345°
2026-05-07 13:32 40.42552 29.46410 35439 ft 308 kts 353°
2026-05-07 13:32 40.44006 29.46438 35142 ft 310 kts 358°
2026-05-07 13:32 40.46154 29.46847 34709 ft 314 kts
2026-05-07 13:33 40.48283 29.47582 34245 ft 317 kts
2026-05-07 13:33 40.50390 29.48429 33732 ft 318 kts 11°
2026-05-07 13:33 40.52466 29.49301 33207 ft 317 kts 11°
2026-05-07 13:33 40.54556 29.50190 32691 ft 317 kts 11°
2026-05-07 13:34 40.56672 29.51086 32171 ft 317 kts 11°
2026-05-07 13:34 40.60835 29.52844 31188 ft 316 kts 11°
2026-05-07 13:34 40.62906 29.53709 30705 ft 315 kts 11°
2026-05-07 13:35 40.65025 29.54595 30237 ft 314 kts 11°
2026-05-07 13:35 40.67744 29.55725 29525 ft 314 kts 11°
2026-05-07 13:35 40.69118 29.56298 29159 ft 313 kts 11°
2026-05-07 13:35 40.71165 29.57345 28631 ft 318 kts 19°
2026-05-07 13:36 40.73072 29.58845 28094 ft 323 kts 28°
2026-05-07 13:36 40.74872 29.60638 27570 ft 325 kts 32°
2026-05-07 13:36 40.76538 29.62664 26950 ft 331 kts 37°
2026-05-07 13:36 40.78168 29.64828 26337 ft 334 kts 39°
2026-05-07 13:37 40.79744 29.67131 25725 ft 339 kts 44°
2026-05-07 13:37 40.81124 29.69680 25132 ft 344 kts 50°
2026-05-07 13:37 40.82405 29.72341 24557 ft 345 kts 51°
2026-05-07 13:37 40.83642 29.75004 23999 ft 345 kts 52°
2026-05-07 13:38 40.84911 29.77746 23383 ft 344 kts 52°
2026-05-07 13:38 40.86130 29.80387 22720 ft 335 kts 52°
2026-05-07 13:38 40.87330 29.82977 22066 ft 325 kts 52°
2026-05-07 13:38 40.88492 29.85492 21378 ft 318 kts 52°
2026-05-07 13:39 40.89625 29.87940 20703 ft 312 kts 52°
2026-05-07 13:39 40.90765 29.90383 20038 ft 307 kts 52°
2026-05-07 13:39 40.91885 29.92755 19401 ft 303 kts 52°
2026-05-07 13:39 40.93175 29.94884 18767 ft 292 kts 39°
2026-05-07 13:40 40.94711 29.96521 18101 ft 282 kts 29°
2026-05-07 13:40 40.96433 29.97648 17365 ft 273 kts 17°
2026-05-07 13:40 40.98257 29.98192 16617 ft 267 kts
2026-05-07 13:40 41.00096 29.98335 15892 ft 264 kts 358°
2026-05-07 13:41 41.01903 29.97982 15173 ft 261 kts 343°
2026-05-07 13:41 41.03585 29.97132 14482 ft 259 kts 332°
2026-05-07 13:41 41.05058 29.95780 13780 ft 258 kts 318°
2026-05-07 13:41 41.06202 29.93999 13031 ft 259 kts 302°
2026-05-07 13:42 41.06924 29.91807 12287 ft 252 kts 290°
2026-05-07 13:42 41.07328 29.89582 11559 ft 245 kts 280°
2026-05-07 13:42 41.07408 29.87392 10862 ft 240 kts 269°
2026-05-07 13:42 41.07132 29.85200 10178 ft 246 kts 259°
2026-05-07 13:43 41.06628 29.83042 9445 ft 250 kts 252°
2026-05-07 13:43 41.05970 29.80875 8697 ft 251 kts 250°
2026-05-07 13:43 41.05182 29.78816 7980 ft 252 kts 242°
2026-05-07 13:43 41.04263 29.76873 7275 ft 244 kts 240°
2026-05-07 13:44 41.03301 29.75065 6592 ft 237 kts 237°
2026-05-07 13:44 41.02350 29.73325 5898 ft 230 kts 237°
2026-05-07 13:44 41.01433 29.71643 5241 ft 215 kts 237°
2026-05-07 13:44 41.00600 29.70071 4590 ft 205 kts 237°
2026-05-07 13:45 40.99875 29.68553 4149 ft 191 kts 240°
2026-05-07 13:45 40.99267 29.67059 3855 ft 178 kts 246°
2026-05-07 13:45 40.98914 29.65539 3560 ft 169 kts 255°
2026-05-07 13:45 40.98589 29.64037 3294 ft 169 kts 255°
2026-05-07 13:46 40.98265 29.62558 3108 ft 167 kts 254°
2026-05-07 13:46 40.97968 29.61113 3095 ft 160 kts 255°
2026-05-07 13:46 40.97678 29.59715 3084 ft 154 kts 255°
2026-05-07 13:46 40.97372 29.58386 3053 ft 147 kts 255°
2026-05-07 13:47 40.97123 29.57111 3048 ft 143 kts 255°
2026-05-07 13:47 40.96866 29.55933 3043 ft 127 kts 254°
2026-05-07 13:47 40.96614 29.54843 3038 ft 120 kts 255°
2026-05-07 13:47 40.96396 29.53843 3010 ft 111 kts 256°
2026-05-07 13:48 40.96342 29.53587 3008 ft 109 kts 256°
2026-05-07 13:48 40.95981 29.52025 2965 ft 105 kts 255°
2026-05-07 13:48 40.95756 29.51009 2968 ft 127 kts 253°
2026-05-07 13:48 40.95454 29.49833 3011 ft 142 kts 251°
2026-05-07 13:49 40.95051 29.48594 3030 ft 148 kts 249°
2026-05-07 13:49 40.94718 29.47322 3039 ft 143 kts 256°
2026-05-07 13:49 40.94473 29.46021 2956 ft 147 kts 259°
2026-05-07 13:49 40.94223 29.44739 3028 ft 145 kts 253°
2026-05-07 13:50 40.93929 29.43412 2864 ft 152 kts 255°
2026-05-07 13:50 40.93600 29.42044 2482 ft 163 kts 253°
2026-05-07 13:50 40.93245 29.40637 2256 ft 159 kts 251°
2026-05-07 13:50 40.92834 29.39273 1875 ft 160 kts 251°
2026-05-07 13:51 40.92401 29.37912 1513 ft 160 kts 248°
2026-05-07 13:51 40.91933 29.36577 1206 ft 157 kts 245°
2026-05-07 13:51 40.91474 29.35282 917 ft 154 kts 243°
2026-05-07 13:51 40.90999 29.34031 631 ft 151 kts 244°
2026-05-07 13:52 40.90547 29.32838 402 ft 145 kts 246°
2026-05-07 13:52 40.90130 29.31675 316 ft 130 kts 245°
2026-05-07 13:52 40.89805 29.30798 309 ft 43 kts 246°
2026-05-07 13:52 40.89778 29.30771 310 ft 2 kts 246°
2026-05-07 13:53 40.89775 29.30773 310 ft 2 kts 246°